Hourly Data Report for February 10, 2017

All times are specified in Local Standard Time (LST). Add 1 hour to adjust for Daylight Saving Time where and when it is observed.

COLVILLE LAKE
NORTHWEST TERRITORIES

67°01'17.040" N
126°07'23.070" W
271.00 m
2200824
71055
WFX

Download Data

Hourly Data (February 2017)
Hourly Data Report for February 10, 2017
Temp Definition
°C
Dew Point Temp Definition
°C
Rel Hum Definition
%
Wind Dir Definition
10's deg

Wind Spd Definition
km/h
Visibility Definition
km
Stn Press Definition
kPa
Hmdx Definition


Wind Chill Definition


Weather Definition


TIME
00:00 -36.9 -40.8 67 20 2   97.16   -40 LegendNANA
01:00 -36.7 -40.9 65 0 1   97.19   -38 LegendNANA
02:00 -37.5 -41.6 66 21 4   97.22   -43 LegendNANA
03:00 -36.7 -40.8 66 10 2   97.24   -39 LegendNANA
04:00 -37.8 -42.0 65 21 6   97.27   -45 LegendNANA
05:00 -37.4 -41.4 66 0 1   97.26   -39 LegendNANA
06:00 -37.8 -42.0 65 22 5   97.27   -44 LegendNANA
07:00 -38.6 -43.0 63 21 6   97.28   -46 LegendNANA
08:00 -39.6 -44.1 62 21 6   97.30   -48 LegendNANA
09:00 -38.3 -42.4 65 22 4   97.29   -44 LegendNANA
10:00 -38.9 -43.3 63 23 4   97.31   -44 LegendNANA
11:00 -38.2 -42.5 64 23 3   97.31   -42 LegendNANA
12:00 -37.6 -42.0 64 19 1   97.33   -39 LegendNANA
13:00 -34.2 -37.9 69   0   97.30     LegendNANA
14:00 -36.7 -41.1 64 4 2   97.28   -39 LegendNANA
15:00 -36.0 -40.1 66 2 1   97.28   -37 LegendNANA
16:00 -36.0 -40.1 66   0   97.26     LegendNANA
17:00 -36.7 -40.8 65 6 2   97.25   -39 LegendNANA
18:00 -37.0 -41.2 65 8 3   97.21   -41 LegendNANA
19:00 -39.4 -44.0 62 2 2   97.19   -42 LegendNANA
20:00 -39.4 -43.9 63 5 3   97.17   -44 LegendNANA
21:00 -39.8 -44.4 61 3 4   97.14   -45 LegendNANA
22:00 -39.5 -43.9 63 4 4   97.11   -45 LegendNANA
23:00 -39.8 -44.2 63 3 4   97.07   -45 LegendNANA

Notes on Data Quality.

Legend

  • E = Estimated
  • M = Missing
  • NA = Not Available
  • ‡ = Partner data that is not subject to review by the National Climate Archives
Date modified: